,,,PA_Meas_PMT16A,,PR_Meas_QMR101_102,,RH_Meas_QMH101,,SR_Meas_QMS101,,TA_Meas_QMH101,,GenWind,,GenWind,
date,time,status,PA,status,PR,status,RH,status,SR,status,TA,status,DirAvg,status,SpdAvg,
2008-10-19, 00:00:04,VALID,1004.53,VALID,0,VALID,95.2923,VALID,0,VALID,24.2894,VALID,39,VALID,0.20625,
2008-10-19, 00:01:04,VALID,1004.53,VALID,0,VALID,95.2542,VALID,0,VALID,24.2681,VALID,39,VALID,0.0121094,
2008-10-19, 00:02:04,VALID,1004.54,VALID,0,VALID,95.2389,VALID,0,VALID,24.2699,VALID,39,VALID,0,
2008-10-19, 00:03:04,VALID,1004.56,VALID,0,VALID,95.3152,VALID,0,VALID,24.2894,VALID,39,VALID,0,
2008-10-19, 00:04:04,VALID,1004.53,VALID,0,VALID,95.2695,VALID,0,VALID,24.2912,VALID,39,VALID,0,
2008-10-19, 00:05:04,VALID,1004.53,VALID,0,VALID,95.2313,VALID,0,VALID,24.231,VALID,39,VALID,0,
2008-10-19, 00:06:04,VALID,1004.5,VALID,0,VALID,95.2313,VALID,0,VALID,24.231,VALID,39,VALID,0,
2008-10-19, 00:07:04,VALID,1004.51,VALID,0,VALID,95.2084,VALID,0,VALID,24.192,VALID,39,VALID,0.00664063,
2008-10-19, 00:08:04,VALID,1004.5,VALID,0,VALID,95.2542,VALID,0,VALID,24.192,VALID,19,VALID,0.189453,
2008-10-19, 00:09:04,VALID,1004.47,VALID,0,VALID,95.2847,VALID,0,VALID,24.1513,VALID,19,VALID,0,
2008-10-19, 00:10:04,VALID,1004.43,VALID,0,VALID,95.3076,VALID,0,VALID,24.1726,VALID,19,VALID,0,
2008-10-19, 00:11:04,VALID,1004.42,VALID,0,VALID,95.3763,VALID,0,VALID,24.1318,VALID,19,VALID,0.00351562,
2008-10-19, 00:12:04,VALID,1004.38,VALID,0,VALID,95.422,VALID,0,VALID,24.1531,VALID,19,VALID,0.408203,
2008-10-19, 00:13:04,VALID,1004.37,VALID,0,VALID,95.4526,VALID,0,VALID,24.1531,VALID,19,VALID,0.208203,
2008-10-19, 00:14:04,VALID,1004.35,VALID,0,VALID,95.4678,VALID,0,VALID,24.1336,VALID,19,VALID,0.169531,
2008-10-19, 00:15:04,VALID,1004.33,VALID,0,VALID,95.4678,VALID,0,VALID,24.1142,VALID,19,VALID,0,
2008-10-19, 00:16:04,VALID,1004.31,VALID,0,VALID,95.4754,VALID,0,VALID,24.0734,VALID,19,VALID,0,
2008-10-19, 00:17:04,VALID,1004.29,VALID,0,VALID,95.4831,VALID,0,VALID,24.0947,VALID,19,VALID,0,
2008-10-19, 00:18:04,VALID,1004.31,VALID,0,VALID,95.5975,VALID,0,VALID,24.0734,VALID,19,VALID,0.557813,
2008-10-19, 00:19:04,VALID,1004.27,VALID,0,VALID,95.6356,VALID,0,VALID,24.1142,VALID,19,VALID,0.364453,
2008-10-19, 00:20:04,VALID,1004.3,VALID,0,VALID,95.5899,VALID,0,VALID,24.0734,VALID,19,VALID,0.339063,
2008-10-19, 00:21:04,VALID,1004.27,VALID,0,VALID,95.567,VALID,0,VALID,24.0752,VALID,19,VALID,0.240234,
2008-10-19, 00:22:04,VALID,1004.26,VALID,0,VALID,95.5822,VALID,0,VALID,24.0557,VALID,19,VALID,0.287109,
2008-10-19, 00:23:04,VALID,1004.24,VALID,0,VALID,95.6585,VALID,0,VALID,24.0345,VALID,19,VALID,0.355859,
2008-10-19, 00:24:04,VALID,1004.22,VALID,0,VALID,95.689,VALID,0,VALID,24.0557,VALID,19,VALID,0.366406,
2008-10-19, 00:25:04,VALID,1004.23,VALID,0,VALID,95.7424,VALID,0,VALID,24.0539,VALID,19,VALID,0.476953,
2008-10-19, 00:26:04,VALID,1004.18,VALID,0,VALID,95.6967,VALID,0,VALID,24.0345,VALID,19,VALID,0.279297,
2008-10-19, 00:27:04,VALID,1004.17,VALID,0,VALID,95.6967,VALID,0,VALID,24.0345,VALID,19,VALID,0.278516,
2008-10-19, 00:28:04,VALID,1004.15,VALID,0,VALID,95.7348,VALID,0,VALID,24.0345,VALID,19,VALID,0.353906,
2008-10-19, 00:29:04,VALID,1004.14,VALID,0,VALID,95.7196,VALID,0,VALID,24.015,VALID,19,VALID,0.347266,
2008-10-19, 00:30:04,VALID,1004.13,VALID,0,VALID,95.7424,VALID,0,VALID,23.9955,VALID,19,VALID,0.412109,
2008-10-19, 00:31:04,VALID,1004.11,VALID,0,VALID,95.7272,VALID,0,VALID,23.9566,VALID,19,VALID,0.464063,
2008-10-19, 00:32:04,VALID,1004.12,VALID,0,VALID,95.7272,VALID,0,VALID,23.9371,VALID,19,VALID,0.3125,
2008-10-19, 00:33:04,VALID,1004.09,VALID,0,VALID,95.7501,VALID,0,VALID,23.9584,VALID,19,VALID,0.428125,
2008-10-19, 00:34:04,VALID,1004.07,VALID,0,VALID,95.7501,VALID,0,VALID,23.9389,VALID,19,VALID,0.423047,
2008-10-19, 00:35:04,VALID,1004.05,VALID,0,VALID,95.7806,VALID,0,VALID,23.8787,VALID,19,VALID,0.419141,
2008-10-19, 00:36:04,VALID,1004.06,VALID,0,VALID,95.7577,VALID,0,VALID,23.8593,VALID,19,VALID,0.345703,
2008-10-19, 00:37:04,VALID,1004.02,VALID,0,VALID,95.8111,VALID,0,VALID,23.8593,VALID,19,VALID,0.317578,
2008-10-19, 00:38:04,VALID,1004,VALID,0,VALID,95.834,VALID,0,VALID,23.8398,VALID,19,VALID,0.33125,
2008-10-19, 00:39:04,VALID,1003.96,VALID,0,VALID,95.834,VALID,0,VALID,23.8398,VALID,19,VALID,0.271094,
2008-10-19, 00:40:04,VALID,1003.95,VALID,0,VALID,95.8874,VALID,0,VALID,23.8398,VALID,19,VALID,0.156641,
2008-10-19, 00:41:04,VALID,1003.95,VALID,0,VALID,95.895,VALID,0,VALID,23.8416,VALID,19,VALID,0.285547,
2008-10-19, 00:42:04,VALID,1003.9,VALID,0,VALID,95.9255,VALID,0,VALID,23.8203,VALID,19,VALID,0.497656,
2008-10-19, 00:43:04,VALID,1003.9,VALID,0,VALID,96.0323,VALID,0,VALID,23.9,VALID,21,VALID,0.45,
2008-10-19, 00:44:04,VALID,1003.91,VALID,0,VALID,96.0629,VALID,0,VALID,23.9177,VALID,21,VALID,0.310937,
2008-10-19, 00:45:04,VALID,1003.86,VALID,0,VALID,96.0705,VALID,0,VALID,23.9389,VALID,21,VALID,0.358984,
2008-10-19, 00:46:04,VALID,1003.85,VALID,0,VALID,96.0476,VALID,0,VALID,23.9584,VALID,21,VALID,0.449609,
2008-10-19, 00:47:04,VALID,1003.8,VALID,0,VALID,96.0476,VALID,0,VALID,23.9177,VALID,21,VALID,0.49375,
2008-10-19, 00:48:04,VALID,1003.79,VALID,0,VALID,95.9942,VALID,0,VALID,23.8982,VALID,21,VALID,0.432422,
2008-10-19, 00:49:04,VALID,1003.75,VALID,0,VALID,96.0476,VALID,0,VALID,23.9389,VALID,21,VALID,0.260547,
2008-10-19, 00:50:04,VALID,1003.71,VALID,0,VALID,96.0247,VALID,0,VALID,23.9195,VALID,21,VALID,0.319141,
2008-10-19, 00:51:04,VALID,1003.7,VALID,0,VALID,95.9866,VALID,0,VALID,23.9195,VALID,21,VALID,0.279297,
2008-10-19, 00:52:04,VALID,1003.69,VALID,0,VALID,96.0323,VALID,0,VALID,23.8787,VALID,21,VALID,0.376953,
2008-10-19, 00:53:04,VALID,1003.64,VALID,0,VALID,96.0857,VALID,0,VALID,23.9584,VALID,21,VALID,0.238281,
2008-10-19, 00:54:04,VALID,1003.61,VALID,0,VALID,96.1086,VALID,0,VALID,23.9973,VALID,23,VALID,0.357031,
2008-10-19, 00:55:04,VALID,1003.57,VALID,0,VALID,96.1544,VALID,0,VALID,24.0345,VALID,47,VALID,0.273047,
2008-10-19, 00:56:04,VALID,1003.55,VALID,0,VALID,96.1697,VALID,0,VALID,24.1142,VALID,50,VALID,0.423438,
2008-10-19, 00:57:04,VALID,1003.52,VALID,0,VALID,96.1773,VALID,0,VALID,24.1123,VALID,61,VALID,0.494531,
2008-10-19, 00:58:04,VALID,1003.51,VALID,0,VALID,96.1849,VALID,0,VALID,24.1531,VALID,61,VALID,0.335938,
2008-10-19, 00:59:04,VALID,1003.5,VALID,0,VALID,96.1849,VALID,0,VALID,24.1513,VALID,61,VALID,0.394141,
2008-10-19, 01:00:04,VALID,1003.5,VALID,0,VALID,96.1697,VALID,0,VALID,24.1902,VALID,66,VALID,0.420312,
2008-10-19, 01:01:04,VALID,1003.51,VALID,0,VALID,96.1773,VALID,0,VALID,24.2291,VALID,60,VALID,0.491016,
2008-10-19, 01:02:04,VALID,1003.51,VALID,0,VALID,96.1773,VALID,0,VALID,24.231,VALID,49,VALID,0.227344,
2008-10-19, 01:03:04,VALID,1003.47,VALID,0,VALID,96.1239,VALID,0,VALID,24.1902,VALID,40,VALID,0.560156,
2008-10-19, 01:04:04,VALID,1003.47,VALID,0,VALID,96.0857,VALID,0,VALID,24.1707,VALID,39,VALID,0.385938,
2008-10-19, 01:05:04,VALID,1003.46,VALID,0,VALID,96.0629,VALID,0,VALID,24.1902,VALID,29,VALID,0.253125,
2008-10-19, 01:06:04,VALID,1003.47,VALID,0,VALID,96.0629,VALID,0,VALID,24.1513,VALID,29,VALID,0.292188,
2008-10-19, 01:07:04,VALID,1003.47,VALID,0,VALID,95.9637,VALID,0,VALID,24.1726,VALID,29,VALID,0.379687,
2008-10-19, 01:08:04,VALID,1003.46,VALID,0,VALID,95.9789,VALID,0,VALID,24.1513,VALID,8,VALID,0.230469,
2008-10-19, 01:09:04,VALID,1003.46,VALID,0,VALID,96.0476,VALID,0,VALID,24.2097,VALID,62,VALID,0.382422,
2008-10-19, 01:10:04,VALID,1003.42,VALID,0,VALID,96.0552,VALID,0,VALID,24.2291,VALID,63,VALID,0.245703,
2008-10-19, 01:11:04,VALID,1003.41,VALID,0,VALID,96.0552,VALID,0,VALID,24.2894,VALID,68,VALID,0.192188,
2008-10-19, 01:12:04,VALID,1003.4,VALID,0,VALID,96.0323,VALID,0,VALID,24.2681,VALID,68,VALID,0.00664063,
2008-10-19, 01:13:04,VALID,1003.38,VALID,0,VALID,95.9942,VALID,0,VALID,24.2681,VALID,69,VALID,0.273438,
2008-10-19, 01:14:04,VALID,1003.37,VALID,0,VALID,95.9789,VALID,0.100563,VALID,24.2875,VALID,89,VALID,0.552734,
2008-10-19, 01:15:04,VALID,1003.42,VALID,0,VALID,95.9408,VALID,0,VALID,24.2875,VALID,89,VALID,0.281641,
2008-10-19, 01:16:04,VALID,1003.43,VALID,0,VALID,95.9103,VALID,0,VALID,24.307,VALID,89,VALID,0.453906,
2008-10-19, 01:17:04,VALID,1003.41,VALID,0,VALID,95.9027,VALID,0,VALID,24.3673,VALID,89,VALID,0.496094,
2008-10-19, 01:18:04,VALID,1003.41,VALID,0,VALID,95.8416,VALID,0,VALID,24.3673,VALID,89,VALID,0.304688,
2008-10-19, 01:19:04,VALID,1003.38,VALID,0,VALID,95.8569,VALID,0,VALID,24.3867,VALID,89,VALID,0.266797,
2008-10-19, 01:20:04,VALID,1003.37,VALID,0,VALID,95.8264,VALID,0,VALID,24.4043,VALID,89,VALID,0.2875,
2008-10-19, 01:21:04,VALID,1003.39,VALID,0,VALID,95.7577,VALID,0,VALID,24.4043,VALID,89,VALID,0.396484,
2008-10-19, 01:22:04,VALID,1003.37,VALID,0,VALID,95.7653,VALID,0,VALID,24.4628,VALID,104,VALID,0.284375,
2008-10-19, 01:23:04,VALID,1003.37,VALID,0,VALID,95.6967,VALID,0,VALID,24.523,VALID,103,VALID,0.391797,
2008-10-19, 01:24:04,VALID,1003.41,VALID,0,VALID,95.5975,VALID,0,VALID,24.562,VALID,103,VALID,0.332031,
2008-10-19, 01:25:04,VALID,1003.41,VALID,0,VALID,95.4602,VALID,0,VALID,24.562,VALID,100,VALID,0.191016,
2008-10-19, 01:26:04,VALID,1003.45,VALID,0,VALID,95.2389,VALID,0,VALID,24.5035,VALID,100,VALID,0.244922,
2008-10-19, 01:27:04,VALID,1003.43,VALID,0,VALID,95.1398,VALID,0,VALID,24.4433,VALID,100,VALID,0.190234,
2008-10-19, 01:28:04,VALID,1003.45,VALID,0,VALID,95.0558,VALID,0,VALID,24.3459,VALID,100,VALID,0.134766,
2008-10-19, 01:29:04,VALID,1003.41,VALID,0,VALID,95.0406,VALID,0,VALID,24.3265,VALID,100,VALID,0.0792969,
2008-10-19, 01:30:04,VALID,1003.41,VALID,0,VALID,95.1093,VALID,0,VALID,24.2681,VALID,52,VALID,0.430859,
2008-10-19, 01:31:04,VALID,1003.37,VALID,0,VALID,95.1474,VALID,0,VALID,24.2875,VALID,35,VALID,0.207031,
2008-10-19, 01:32:04,VALID,1003.36,VALID,0,VALID,95.1627,VALID,0,VALID,24.2894,VALID,50,VALID,0.189453,
2008-10-19, 01:33:04,VALID,1003.33,VALID,0,VALID,95.2618,VALID,0,VALID,24.3265,VALID,107,VALID,0.491016,
2008-10-19, 01:34:04,VALID,1003.34,VALID,0,VALID,95.2389,VALID,0,VALID,24.4062,VALID,70,VALID,0.336328,
2008-10-19, 01:35:04,VALID,1003.31,VALID,0,VALID,95.094,VALID,0,VALID,24.4043,VALID,70,VALID,0.196875,
2008-10-19, 01:36:04,VALID,1003.28,VALID,0,VALID,94.9872,VALID,0,VALID,24.4238,VALID,70,VALID,0,
2008-10-19, 01:37:04,VALID,1003.32,VALID,0,VALID,94.8804,VALID,0,VALID,24.4238,VALID,70,VALID,0.00625,
2008-10-19, 01:38:04,VALID,1003.3,VALID,0,VALID,94.7812,VALID,0,VALID,24.4043,VALID,69,VALID,0.0871094,
2008-10-19, 01:39:04,VALID,1003.3,VALID,0,VALID,94.7202,VALID,0,VALID,24.4257,VALID,69,VALID,0.173047,
2008-10-19, 01:40:04,VALID,1003.28,VALID,0,VALID,94.6897,VALID,0,VALID,24.4043,VALID,68,VALID,0.0570313,
2008-10-19, 01:41:04,VALID,1003.28,VALID,0,VALID,94.6134,VALID,0,VALID,24.3849,VALID,68,VALID,0,
2008-10-19, 01:42:04,VALID,1003.31,VALID,0,VALID,94.6057,VALID,0,VALID,24.3867,VALID,68,VALID,0,
2008-10-19, 01:43:04,VALID,1003.3,VALID,0,VALID,94.6057,VALID,0,VALID,24.3459,VALID,68,VALID,0.226172,
2008-10-19, 01:44:04,VALID,1003.28,VALID,0,VALID,94.5752,VALID,0,VALID,24.3265,VALID,66,VALID,0.473828,
2008-10-19, 01:45:04,VALID,1003.27,VALID,0,VALID,94.5676,VALID,0,VALID,24.3478,VALID,40,VALID,0.416016,
2008-10-19, 01:46:04,VALID,1003.27,VALID,0,VALID,94.5447,VALID,0,VALID,24.3478,VALID,40,VALID,0.483984,
2008-10-19, 01:47:04,VALID,1003.24,VALID,0,VALID,94.5218,VALID,0,VALID,24.3283,VALID,39,VALID,0.492578,
2008-10-19, 01:48:04,VALID,1003.27,VALID,0,VALID,94.5142,VALID,0,VALID,24.2875,VALID,21,VALID,0.696484,
2008-10-19, 01:49:04,VALID,1003.23,VALID,0,VALID,94.6057,VALID,0,VALID,24.3867,VALID,57,VALID,0.494531,
2008-10-19, 01:50:04,VALID,1003.19,VALID,0,VALID,94.4227,VALID,0,VALID,24.3867,VALID,68,VALID,0.527734,
2008-10-19, 01:51:04,VALID,1003.19,VALID,0,VALID,94.2853,VALID,0,VALID,24.3849,VALID,71,VALID,0.230078,
2008-10-19, 01:52:04,VALID,1003.16,VALID,0,VALID,94.2167,VALID,0,VALID,24.3867,VALID,71,VALID,0.000390625,
2008-10-19, 01:53:04,VALID,1003.12,VALID,0,VALID,94.3845,VALID,0,VALID,24.4646,VALID,11,VALID,0.537891,
2008-10-19, 01:54:04,VALID,1003.1,VALID,0,VALID,94.2701,VALID,0,VALID,24.4841,VALID,43,VALID,0.0921875,
2008-10-19, 01:55:04,VALID,1003.11,VALID,0,VALID,94.2243,VALID,0,VALID,24.5425,VALID,71,VALID,0.781641,
2008-10-19, 01:56:04,VALID,1003.09,VALID,0,VALID,94.0565,VALID,0,VALID,24.6009,VALID,79,VALID,0.483203,
2008-10-19, 01:57:04,VALID,1003.11,VALID,0,VALID,93.8963,VALID,0,VALID,24.6398,VALID,46,VALID,0.513672,
2008-10-19, 01:58:04,VALID,1003.09,VALID,0,VALID,93.7055,VALID,0,VALID,24.6574,VALID,88,VALID,0.149219,
2008-10-19, 01:59:04,VALID,1003.09,VALID,0,VALID,93.5148,VALID,0,VALID,24.6593,VALID,43,VALID,0.381641,
2008-10-19, 02:00:04,VALID,1003.09,VALID,0,VALID,93.3851,VALID,0,VALID,24.6574,VALID,46,VALID,0.473047,
2008-10-19, 02:01:04,VALID,1003.07,VALID,0,VALID,93.4538,VALID,0,VALID,24.6964,VALID,77,VALID,0.395703,
2008-10-19, 02:02:04,VALID,1003.07,VALID,0,VALID,93.347,VALID,0,VALID,24.7372,VALID,40,VALID,0.365625,
2008-10-19, 02:03:04,VALID,1003.07,VALID,0,VALID,93.2554,VALID,0,VALID,24.7372,VALID,40,VALID,0,
2008-10-19, 02:04:04,VALID,1003.04,VALID,0,VALID,93.1791,VALID,0,VALID,24.7159,VALID,49,VALID,0,
2008-10-19, 02:05:04,VALID,1003.06,VALID,0,VALID,93.1639,VALID,0,VALID,24.6964,VALID,49,VALID,0,
2008-10-19, 02:06:04,VALID,1003.07,VALID,0,VALID,93.1715,VALID,0,VALID,24.6983,VALID,49,VALID,0,
2008-10-19, 02:07:04,VALID,1003.02,VALID,0,VALID,93.1563,VALID,0,VALID,24.6788,VALID,49,VALID,0,
2008-10-19, 02:08:04,VALID,1003.04,VALID,0,VALID,93.0876,VALID,0,VALID,24.6204,VALID,49,VALID,0.528516,
2008-10-19, 02:09:04,VALID,1003,VALID,0,VALID,93.0495,VALID,0,VALID,24.562,VALID,40,VALID,0.359375,
2008-10-19, 02:10:04,VALID,1003.03,VALID,0,VALID,93.141,VALID,0,VALID,24.4628,VALID,41,VALID,0.227734,
2008-10-19, 02:11:04,VALID,1002.99,VALID,0,VALID,93.2325,VALID,0,VALID,24.4257,VALID,41,VALID,0.244141,
2008-10-19, 02:12:04,VALID,1002.98,VALID,0,VALID,93.4233,VALID,0,VALID,24.3673,VALID,41,VALID,0.490234,
2008-10-19, 02:13:04,VALID,1002.96,VALID,0,VALID,93.7208,VALID,0,VALID,24.3283,VALID,66,VALID,0.28125,
2008-10-19, 02:14:04,VALID,1002.94,VALID,0,VALID,93.9725,VALID,0,VALID,24.307,VALID,73,VALID,0.536719,
2008-10-19, 02:15:04,VALID,1002.95,VALID,0,VALID,93.9573,VALID,0,VALID,24.3478,VALID,77,VALID,0.120703,
2008-10-19, 02:16:04,VALID,1002.95,VALID,0,VALID,93.9573,VALID,0,VALID,24.3088,VALID,77,VALID,0.399219,
2008-10-19, 02:17:04,VALID,1002.92,VALID,0,VALID,93.9649,VALID,0,VALID,24.3088,VALID,76,VALID,0.340625,
2008-10-19, 02:18:04,VALID,1002.93,VALID,0,VALID,94.0641,VALID,0,VALID,24.2894,VALID,76,VALID,0.263672,
2008-10-19, 02:19:04,VALID,1002.91,VALID,0,VALID,94.1328,VALID,0,VALID,24.2894,VALID,76,VALID,0.136719,
2008-10-19, 02:20:04,VALID,1002.9,VALID,0,VALID,94.2624,VALID,0,VALID,24.3088,VALID,76,VALID,0.321094,
2008-10-19, 02:21:04,VALID,1002.88,VALID,0,VALID,94.2624,VALID,0,VALID,24.3088,VALID,75,VALID,0.384375,
2008-10-19, 02:22:04,VALID,1002.91,VALID,0,VALID,94.293,VALID,0,VALID,24.307,VALID,75,VALID,0.568359,
2008-10-19, 02:23:04,VALID,1002.91,VALID,0,VALID,94.2701,VALID,0,VALID,24.307,VALID,75,VALID,0.365234,
2008-10-19, 02:24:04,VALID,1002.89,VALID,0,VALID,94.2167,VALID,0.100563,VALID,24.3265,VALID,82,VALID,0.284375,
2008-10-19, 02:25:04,VALID,1002.9,VALID,0,VALID,94.1251,VALID,0,VALID,24.307,VALID,82,VALID,0.273047,
2008-10-19, 02:26:04,VALID,1002.91,VALID,0,VALID,94.0794,VALID,0,VALID,24.2681,VALID,72,VALID,0.482812,
2008-10-19, 02:27:04,VALID,1002.88,VALID,0,VALID,94.2396,VALID,0,VALID,24.2894,VALID,79,VALID,0.654297,
2008-10-19, 02:28:04,VALID,1002.9,VALID,0,VALID,94.3387,VALID,0,VALID,24.3283,VALID,79,VALID,0.292969,
2008-10-19, 02:29:04,VALID,1002.91,VALID,0,VALID,94.4608,VALID,0,VALID,24.3478,VALID,100,VALID,0.844531,
2008-10-19, 02:30:04,VALID,1002.94,VALID,0,VALID,94.4761,VALID,0,VALID,24.4043,VALID,77,VALID,0.781641,
2008-10-19, 02:31:04,VALID,1002.93,VALID,0,VALID,94.3158,VALID,0,VALID,24.5212,VALID,54,VALID,0.701563,
2008-10-19, 02:32:04,VALID,1002.87,VALID,0,VALID,94.1633,VALID,0.100563,VALID,24.6769,VALID,126,VALID,0.669531,
2008-10-19, 02:33:04,VALID,1002.89,VALID,0,VALID,93.7971,VALID,0,VALID,24.7937,VALID,78,VALID,0.986719,
2008-10-19, 02:34:04,VALID,1002.89,VALID,0,VALID,93.3241,VALID,0.100563,VALID,24.93,VALID,79,VALID,0.775781,
2008-10-19, 02:35:04,VALID,1002.91,VALID,0,VALID,92.9808,VALID,0,VALID,25.0079,VALID,100,VALID,0.466016,
2008-10-19, 02:36:04,VALID,1002.91,VALID,0,VALID,92.6604,VALID,0,VALID,25.0663,VALID,79,VALID,0.907031,
2008-10-19, 02:37:04,VALID,1002.92,VALID,0,VALID,92.3629,VALID,0,VALID,25.1637,VALID,91,VALID,1.35469,
2008-10-19, 02:38:04,VALID,1002.9,VALID,0,VALID,92.0882,VALID,0,VALID,25.224,VALID,118,VALID,1.10312,
2008-10-19, 02:39:04,VALID,1002.91,VALID,0,VALID,91.722,VALID,0,VALID,25.2825,VALID,117,VALID,1.7332,
2008-10-19, 02:40:04,VALID,1002.89,VALID,0,VALID,91.5313,VALID,0.100563,VALID,25.339,VALID,125,VALID,1.20352,
2008-10-19, 02:41:04,VALID,1002.89,VALID,0,VALID,91.2796,VALID,0,VALID,25.3798,VALID,108,VALID,0.919531,
2008-10-19, 02:42:04,VALID,1002.85,VALID,0,VALID,91.2109,VALID,0,VALID,25.3993,VALID,102,VALID,1.05195,
2008-10-19, 02:43:04,VALID,1002.84,VALID,0,VALID,91.3253,VALID,0,VALID,25.3798,VALID,82,VALID,0.467969,
2008-10-19, 02:44:04,VALID,1002.82,VALID,0,VALID,91.2033,VALID,0,VALID,25.339,VALID,96,VALID,0.916797,
2008-10-19, 02:45:04,VALID,1002.83,VALID,0,VALID,91.2719,VALID,0,VALID,25.3604,VALID,93,VALID,0.582031,
2008-10-19, 02:46:04,VALID,1002.77,VALID,0,VALID,91.249,VALID,0,VALID,25.3,VALID,73,VALID,0.925391,
2008-10-19, 02:47:04,VALID,1002.74,VALID,0,VALID,91.2948,VALID,0,VALID,25.3,VALID,114,VALID,0.595703,
2008-10-19, 02:48:04,VALID,1002.73,VALID,0,VALID,91.2948,VALID,0.100563,VALID,25.2806,VALID,107,VALID,0.751562,
2008-10-19, 02:49:04,VALID,1002.69,VALID,0,VALID,91.3635,VALID,0,VALID,25.2611,VALID,102,VALID,0.757813,
2008-10-19, 02:50:04,VALID,1002.68,VALID,0,VALID,91.3635,VALID,0,VALID,25.2416,VALID,108,VALID,0.754687,
2008-10-19, 02:51:04,VALID,1002.66,VALID,0,VALID,91.3864,VALID,0,VALID,25.263,VALID,106,VALID,0.577344,
2008-10-19, 02:52:04,VALID,1002.67,VALID,0,VALID,91.3635,VALID,0,VALID,25.2435,VALID,92,VALID,0.993359,
2008-10-19, 02:53:04,VALID,1002.69,VALID,0,VALID,91.3864,VALID,0,VALID,25.2435,VALID,105,VALID,0.935547,
2008-10-19, 02:54:04,VALID,1002.68,VALID,0,VALID,91.3635,VALID,0,VALID,25.2435,VALID,110,VALID,1.14297,
2008-10-19, 02:55:04,VALID,1002.68,VALID,0,VALID,91.4321,VALID,0,VALID,25.1832,VALID,128,VALID,0.664453,
2008-10-19, 02:56:04,VALID,1002.7,VALID,0,VALID,91.5161,VALID,0,VALID,25.1656,VALID,115,VALID,0.956641,
2008-10-19, 02:57:04,VALID,1002.69,VALID,0,VALID,91.6457,VALID,0,VALID,25.1461,VALID,108,VALID,0.769141,
2008-10-19, 02:58:04,VALID,1002.69,VALID,0,VALID,91.6991,VALID,0,VALID,25.1267,VALID,136,VALID,0.915234,
2008-10-19, 02:59:04,VALID,1002.68,VALID,0,VALID,91.7068,VALID,0,VALID,25.1072,VALID,98,VALID,0.58125,
2008-10-19, 03:00:04,VALID,1002.66,VALID,0,VALID,91.6763,VALID,0,VALID,25.1072,VALID,74,VALID,0.558984,
2008-10-19, 03:01:04,VALID,1002.64,VALID,0,VALID,91.7297,VALID,0,VALID,25.0877,VALID,55,VALID,0.410547,
2008-10-19, 03:02:04,VALID,1002.65,VALID,0,VALID,91.7831,VALID,0,VALID,25.0274,VALID,74,VALID,0.973437,
2008-10-19, 03:03:04,VALID,1002.65,VALID,0,VALID,91.8822,VALID,0,VALID,25.0274,VALID,99,VALID,0.885938,
2008-10-19, 03:04:04,VALID,1002.66,VALID,0,VALID,91.928,VALID,0,VALID,25.0098,VALID,65,VALID,0.753125,
2008-10-19, 03:05:04,VALID,1002.68,VALID,0,VALID,91.9662,VALID,0,VALID,24.9709,VALID,79,VALID,0.738281,
2008-10-19, 03:06:04,VALID,1002.68,VALID,0,VALID,92.1035,VALID,0,VALID,24.93,VALID,88,VALID,0.535547,
2008-10-19, 03:07:04,VALID,1002.72,VALID,0,VALID,92.1569,VALID,0,VALID,24.8911,VALID,74,VALID,0.903516,
2008-10-19, 03:08:04,VALID,1002.72,VALID,0,VALID,92.2789,VALID,0,VALID,24.8911,VALID,73,VALID,1.04336,
2008-10-19, 03:09:04,VALID,1002.72,VALID,0,VALID,92.3323,VALID,0,VALID,24.893,VALID,83,VALID,0.329688,
2008-10-19, 03:10:04,VALID,1002.75,VALID,0,VALID,92.3857,VALID,0,VALID,24.8327,VALID,69,VALID,0.852344,
2008-10-19, 03:11:04,VALID,1002.78,VALID,0,VALID,92.4544,VALID,0.100563,VALID,24.8132,VALID,59,VALID,0.523438,
2008-10-19, 03:12:04,VALID,1002.78,VALID,0,VALID,92.5536,VALID,0,VALID,24.7937,VALID,54,VALID,0.508594,
2008-10-19, 03:13:04,VALID,1002.75,VALID,0,VALID,92.6833,VALID,0,VALID,24.817,VALID,87,VALID,0.530859,
2008-10-19, 03:14:04,VALID,1002.76,VALID,0,VALID,92.7519,VALID,0,VALID,24.7548,VALID,90,VALID,0.9875,
2008-10-19, 03:15:04,VALID,1002.79,VALID,0,VALID,92.8053,VALID,0,VALID,24.7548,VALID,49,VALID,0.190625,
2008-10-19, 03:16:04,VALID,1002.79,VALID,0,VALID,92.8358,VALID,0,VALID,24.7353,VALID,74,VALID,0.326562,
2008-10-19, 03:17:04,VALID,1002.78,VALID,0,VALID,92.9045,VALID,0,VALID,24.7567,VALID,91,VALID,0.544922,
2008-10-19, 03:18:04,VALID,1002.82,VALID,0,VALID,92.874,VALID,0,VALID,24.714,VALID,45,VALID,0.405469,
2008-10-19, 03:19:04,VALID,1002.8,VALID,0,VALID,92.8435,VALID,0,VALID,24.7761,VALID,82,VALID,0.697656,
2008-10-19, 03:20:04,VALID,1002.81,VALID,0,VALID,92.8206,VALID,0,VALID,24.7548,VALID,69,VALID,0.567187,
2008-10-19, 03:21:04,VALID,1002.81,VALID,0,VALID,92.8053,VALID,0,VALID,24.7567,VALID,72,VALID,0.721875,
2008-10-19, 03:22:04,VALID,1002.83,VALID,0,VALID,92.813,VALID,0,VALID,24.7353,VALID,76,VALID,0.758203,
2008-10-19, 03:23:04,VALID,1002.86,VALID,0,VALID,92.8206,VALID,0,VALID,24.7567,VALID,30,VALID,0.557031,
2008-10-19, 03:24:04,VALID,1002.83,VALID,0,VALID,92.7824,VALID,0,VALID,24.7372,VALID,30,VALID,0.258984,
2008-10-19, 03:25:04,VALID,1002.84,VALID,0,VALID,92.7977,VALID,0,VALID,24.7177,VALID,30,VALID,0.200391,
2008-10-19, 03:26:04,VALID,1002.86,VALID,0,VALID,92.8511,VALID,0,VALID,24.6983,VALID,30,VALID,0.222656,
2008-10-19, 03:27:04,VALID,1002.85,VALID,0,VALID,92.8969,VALID,0,VALID,24.6612,VALID,25,VALID,0.447266,
2008-10-19, 03:28:04,VALID,1002.88,VALID,0,VALID,93.0418,VALID,0,VALID,24.6204,VALID,25,VALID,0.580859,
2008-10-19, 03:29:04,VALID,1002.91,VALID,0,VALID,93.1181,VALID,0,VALID,24.6009,VALID,49,VALID,0.428516,
2008-10-19, 03:30:04,VALID,1002.88,VALID,0,VALID,93.2249,VALID,0,VALID,24.6009,VALID,21,VALID,0.716797,
2008-10-19, 03:31:04,VALID,1002.92,VALID,0,VALID,93.2173,VALID,0,VALID,24.5814,VALID,29,VALID,0.48125,
2008-10-19, 03:32:04,VALID,1002.94,VALID,0,VALID,93.3546,VALID,0,VALID,24.5406,VALID,20,VALID,0.869922,
2008-10-19, 03:33:04,VALID,1002.93,VALID,0,VALID,93.3851,VALID,0,VALID,24.562,VALID,30,VALID,0.569141,
2008-10-19, 03:34:04,VALID,1002.94,VALID,0,VALID,93.4309,VALID,0,VALID,24.562,VALID,20,VALID,0.546875,
2008-10-19, 03:35:04,VALID,1002.92,VALID,0,VALID,93.3546,VALID,0,VALID,24.5425,VALID,19,VALID,0.479688,
2008-10-19, 03:36:04,VALID,1002.95,VALID,0,VALID,93.4156,VALID,0,VALID,24.523,VALID,1,VALID,0.470313,
2008-10-19, 03:37:04,VALID,1002.96,VALID,0,VALID,93.3317,VALID,0,VALID,24.5035,VALID,1,VALID,0.260156,
2008-10-19, 03:38:04,VALID,1002.96,VALID,0,VALID,93.3622,VALID,0,VALID,24.4238,VALID,1,VALID,0.265625,
2008-10-19, 03:39:04,VALID,1002.97,VALID,0,VALID,93.5072,VALID,0,VALID,24.4257,VALID,1,VALID,0.502344,
2008-10-19, 03:40:04,VALID,1002.96,VALID,0,VALID,93.6445,VALID,0,VALID,24.3459,VALID,1,VALID,0.632031,
2008-10-19, 03:41:04,VALID,1002.99,VALID,0,VALID,93.7513,VALID,0,VALID,24.3478,VALID,10,VALID,0.480859,
2008-10-19, 03:42:04,VALID,1003.01,VALID,0,VALID,93.881,VALID,0,VALID,24.3283,VALID,11,VALID,0.331641,
2008-10-19, 03:43:04,VALID,1003.03,VALID,0,VALID,93.8429,VALID,0,VALID,24.307,VALID,11,VALID,0.203516,
2008-10-19, 03:44:04,VALID,1003.06,VALID,0,VALID,93.8581,VALID,0,VALID,24.2894,VALID,11,VALID,0,
2008-10-19, 03:45:04,VALID,1003.05,VALID,0,VALID,93.9039,VALID,0,VALID,24.2504,VALID,11,VALID,0,
2008-10-19, 03:46:04,VALID,1003.07,VALID,0,VALID,93.9954,VALID,0,VALID,24.231,VALID,11,VALID,0,
2008-10-19, 03:47:04,VALID,1003.06,VALID,0,VALID,94.0717,VALID,0,VALID,24.192,VALID,11,VALID,0,